Regional Weather Roundup
Issued by NWS

Home | Current Version | Previous Version | Text Only | Print | Product List | Glossary Off
Versions: 1 2 3 4 5 6 7 8 9 10 11 12 13 14 15 16 17 18 19 20 21 22 23 24 25 26 27 28 29 30 31 32 33 34 35 36 37 38 39 40 41 42 43 44 45 46 47 48 49 50

000
ASUS43 KDMX 231006
RWRIA

WEATHER ROUNDUP FOR IOWA
NATIONAL WEATHER SERVICE DES MOINES IA
500 AM CDT WED MAY 23 2018

NOTE: "FAIR" INDICATES FEW OR NO CLOUDS BELOW 12,000 FEET WITH NO
SIGNIFICANT WEATHER AND/OR OBSTRUCTIONS TO VISIBILITY.

* - THESE STATIONS ARE NOT NWS STATIONS...THUS NOT UNDER NWS
QUALITY CONTROL.  THEY ALSO DO NOT REPORT WEATHER SUCH
AS PRECIPITATION OR FOG.

IAZ001>003-012>014-020>022-031>034-043>046-231100-
   NORTHWEST IOWA

CITY           SKY/WX    TMP DP  RH WIND       PRES   REMARKS
CARROLL *      CLEAR    N/A N/A N/A SE5       30.05R
CHEROKEE *     CLEAR     64  63  97 CALM      30.04R
DENISON *      CLEAR     68  63  83 S8        30.05R
LE MARS *      CLEAR     66  63  88 S5        30.01R
ORANGE CITY *  CLEAR     66  64  94 E6        30.03R
SHELDON *      MOCLDY    64  64 100 E15       30.02R
SIOUX CITY     CLEAR     63  61  93 SE9       29.99R
SPENCER        CLOUDY    66  61  84 E10       30.07R
STORM LAKE *   CLEAR     63  63 100 SE7       30.06R
$$

IAZ055>058-069>071-079>083-090>094-231100-
   SOUTHWEST IOWA

CITY           SKY/WX    TMP DP  RH WIND       PRES   REMARKS
ATLANTIC *     CLEAR     64  63  94 S6        30.04R
AUDUBON *      CLEAR     61  57  88 CALM      30.06R
CLARINDA *       N/A     64  61  88 S5        30.06R
COUNCIL BLFS * CLEAR     66  66 100 SE9       30.02R
CRESTON *      CLEAR     64  61  88 S7        30.08R
HARLAN  *      CLEAR     64  63  94 CALM      30.07R
LAMONI         CLEAR     65  60  84 S6        30.07R
RED OAK *      CLEAR     66  63  88 S5        30.04R
SHENANDOAH *   CLEAR     66  63  88 SE6       30.04R
$$

IAZ047>049-059>061-072>074-084-231100-
   CENTRAL IOWA

CITY           SKY/WX    TMP DP  RH WIND       PRES   REMARKS
AMES           CLOUDY    66  61  84 SE8       30.06F
ANKENY *       MOCLDY    66  63  88 E3        30.08R
BOONE *        PTCLDY    66  63  88 SE10      30.05F
CHARITON *     CLOUDY    64  63  94 SE7       30.07S
DES MOINES     PTCLDY    68  62  81 E6        30.06R
GRINNELL*      PTCLDY    63  60  89 E7        30.12R
KNOXVILLE *    CLOUDY    66  61  82 SE6       30.07R
MARSHALLTOWN   CLOUDY    65  62  90 SE13      30.07F
NEWTON *       MOCLDY    63  61  94 E8        30.09R
PELLA *        CLOUDY    64  60  86 SE5       30.10R
PERRY *        FAIR      65  63  91 E8        30.06S
$$

IAZ004>006-015-016-023>025-035-036-231100-
   NORTH CENTRAL IOWA

CITY           SKY/WX    TMP DP  RH WIND       PRES   REMARKS
ALGONA *       CLOUDY    64  61  88 N14       30.09R
CLARION *      CLOUDY    64  61  88 SE15      30.09S
ESTHERVILLE    HVY RAIN  61  59  93 E12       30.08R
FORT DODGE *   CLOUDY    67  63  87 NE10      30.08R THUNDER
MASON CITY     LGT RAIN  64  63  96 S13       30.12R FOG
FOREST CITY *  RAIN      64  64 100 S3        30.11R
WEBSTER CITY * CLOUDY    68  63  83 E6        30.05R
IOWA FALLS *   LGT RAIN  65  63  93 NE6       30.12R
$$

IAZ007>011-017>019-026>030-037>042-050>054-066-231100-
   NORTHEAST IOWA

CITY           SKY/WX    TMP DP  RH WIND       PRES   REMARKS
CEDAR RAPIDS   MOCLDY    61  60  97 SE6       30.11R
CHARLES CITY * CLOUDY    63  59  88 SE7       30.12R
CLINTON *      FAIR     N/A N/A N/A CALM      30.14R FOG
DECORAH *      CLOUDY    59  59 100 SE7       30.11S
DUBUQUE        FAIR      58  55  90 S3        30.14R
MONTICELLO *   FAIR      61  61 100 SE6       30.13R
OELWEIN *      CLOUDY    63  59  88 SE9       30.13R
WATERLOO       MOCLDY    64  60  87 SE13      30.09R
$$

IAZ064-065-067-068-078-231100-
   EAST CENTRAL IOWA

CITY           SKY/WX    TMP DP  RH WIND       PRES   REMARKS
DAVENPORT      FAIR      58  57  97 E5        30.15R FOG
IOWA CITY      MOCLDY    63  59  87 E3        30.13R
MT. PLEASANT * PTCLDY    61  59  94 SE5       30.11R
MUSCATINE *    MOCLDY    63  61  94 E3        30.12R
QUAD CITIES    FAIR      58  57  97 E5        30.12R
$$

IAZ062-063-075>077-085>089-095>099-231100-
   SOUTHEAST IOWA

CITY           SKY/WX    TMP DP  RH WIND       PRES   REMARKS
BURLINGTON     CLEAR     63  58  83 SE3       30.11R
FAIRFIELD *    PTCLDY    63  61  94 E5        30.10R
FORT MADISON * CLEAR     64  61  88 SE5       30.12R
KEOKUK *       CLEAR     64  61  88 E7        30.10R
OSKALOOSA *    FAIR      63  60  90 SE7       30.10R
CENTERVILLE *    N/A     61  61 100 CALM      30.10R
OTTUMWA        CLOUDY    64  60  87 E7        30.09R
WASHINGTON *   PTCLDY    61  61 100 E6        30.12R
$$

ABBREVIATIONS USED IN REMARKS
   TC - TEMPERATURES IN CELSIUS
  WCI - WIND CHILL INDEX
   HX - HEAT INDEX
  VSB - VISIBILITY
$$





USA.gov is the U.S. government's official web portal to all federal, state and local government web resources and services.